Flag for Palestinian Territories Weather past 2 weeks in Khan Yunis, Gaza Strip, Palestinian Territories

77 °F

Passing clouds.

Feels Like: 79 °F
Forecast: 70 / 83 °F
Wind: 3 mph from North

Location: Ben Gurion International Airport

Current Time: Oct 9, 2015 at 9:45:06 PM

Latest Report: Oct 9, 2015 at 9:20 PM

Visibility: N/A

Pressure: 29.98 "Hg

Humidity: 74%

Dew point: 68 °F

Location of Khan YunisLocation

Historic Weather in Khan Yunis — Graph


Khan Yunis temperature yesterday

Maximum temperature yesterday: 82 °F (at 11:50 AM)
Minimum temperature yesterday: 70 °F (at 2:20 AM)
Average temperature yesterday: 76 °F

Past Weeks' High & Low Weather Summary

High93 °F (Sep 25, 12:50 PM)94% (Oct 7, 6:50 AM)30.12 "Hg (Oct 7, 6:50 AM)
Low68 °F (Oct 7, 2:50 AM)32% (Sep 25, 11:50 AM)29.74 "Hg (Oct 7, 1:50 AM)
Average79 °F65%29.93 "Hg
* Reported Sep 24 8:20 PM — Oct 9 8:50 PM, Khan Yunis, Weather by CustomWeather, © 2015

Note: Actual official high and low records may vary slightly from our data, if they occured in-between our weather recording intervals... More about our weather records


Khan Yunis weather history for previous 24 hours

Time TempWeatherWind HumidityBarometerVisibility
8:50 PM
Fri, Oct 9
77 °FPassing clouds.3 mph74%29.98 "HgN/A
8:20 PM77 °FPassing clouds.2 mph74%29.95 "HgN/A
7:50 PM77 °FPassing clouds.2 mph74%29.95 "HgN/A
7:20 PM77 °FPassing clouds.5 mph69%29.95 "HgN/A
6:50 PM79 °FPassing clouds.7 mph70%29.95 "HgN/A
6:20 PM79 °FPassing clouds.9 mph70%29.95 "HgN/A
5:50 PM81 °FScattered clouds.9 mph62%29.95 "HgN/A
5:20 PM81 °FScattered clouds.12 mph62%29.92 "HgN/A
4:50 PM82 °FScattered clouds.12 mph58%29.92 "HgN/A
4:20 PM82 °FScattered clouds.13 mph58%29.92 "HgN/A
3:50 PM82 °FScattered clouds.13 mph58%29.92 "HgN/A
3:20 PM84 °FScattered clouds.13 mph48%29.92 "HgN/A
2:50 PM82 °FScattered clouds.13 mph55%29.92 "HgN/A
2:20 PM84 °FScattered clouds.13 mph55%29.92 "HgN/A
1:50 PM84 °FScattered clouds.13 mph55%29.92 "HgN/A
1:20 PM84 °FScattered clouds.12 mph51%29.92 "HgN/A
12:50 PM84 °FPartly sunny.10 mph55%29.92 "HgN/A
12:20 PM82 °FPartly sunny.13 mph58%29.95 "HgN/A
11:50 AM82 °FPartly sunny.10 mph62%29.95 "HgN/A
11:20 AM81 °FPassing clouds.6 mph70%29.95 "HgN/A
10:50 AM81 °FPassing clouds.8 mph70%29.95 "HgN/A
10:20 AM79 °FPassing clouds.7 mph74%29.95 "HgN/A
9:50 AM77 °FScattered clouds.7 mph79%29.95 "HgN/A
9:20 AM75 °FScattered clouds.5 mph83%29.95 "HgN/A
8:50 AM73 °FPartly sunny.3 mph83%29.95 "HgN/A
8:20 AM72 °FPartly sunny.7 mph88%29.95 "HgN/A
7:50 AM72 °FRain. Partly sunny.8 mph88%29.92 "HgN/A
7:20 AM72 °FHeavy rain. Scattered clouds.6 mph83%29.92 "HgN/A
6:20 AM70 °FPassing clouds.8 mph83%29.92 "HgN/A
5:50 AM70 °FPassing clouds.7 mph83%29.89 "HgN/A
5:20 AM72 °FPassing clouds.8 mph78%29.89 "HgN/A
4:50 AM72 °FPassing clouds.8 mph78%29.89 "HgN/A
4:20 AM70 °FPassing clouds.7 mph83%29.89 "HgN/A
3:50 AM70 °FPassing clouds.7 mph83%29.89 "HgN/A
3:20 AM70 °FPassing clouds.6 mph83%29.92 "HgN/A
2:50 AM70 °FPassing clouds.7 mph83%29.92 "HgN/A
2:20 AM70 °FPassing clouds.10 mph83%29.92 "HgN/A
1:50 AM70 °FPassing clouds.10 mph83%29.92 "HgN/A
1:20 AM72 °FLight rain. Passing clouds.7 mph83%29.92 "HgN/A
12:50 AM72 °FPartly cloudy.7 mph83%29.92 "HgN/A
12:20 AM72 °FLight rain. Passing clouds.9 mph88%29.95 "HgN/A
11:50 PM
Thu, Oct 8
72 °FRain. Partly cloudy.7 mph83%29.95 "HgN/A
11:20 PM75 °FPassing clouds.9 mph74%29.92 "HgN/A
10:50 PM73 °FPassing clouds.8 mph78%29.92 "HgN/A
10:20 PM75 °FPassing clouds.8 mph74%29.92 "HgN/A
9:50 PM75 °FPassing clouds.8 mph74%29.95 "HgN/A
9:20 PM75 °FPassing clouds.7 mph74%29.95 "HgN/A
Weather by CustomWeather, © 2015

See weather overviewHow to use our weather pages